This is the latest recevied weather packets stored in our database for station/object KC5TIL-3. If no packets are shown the sender has not sent any weather packets the latest 10 day(s).
| Time | Temp. | Humidity | Pressure | Rain* | Wind** | Luminosity | Snow |
|---|---|---|---|---|---|---|---|
| 1777764516 | 24.44° C | 15% | 1016.8 hPa | 0 mm | 1.34 m/s, 97° | - | - |
| 1777764215 | 23.89° C | 15% | 1016.8 hPa | 0 mm | 2.24 m/s, 147° | - | - |
| 1777763613 | 24.44° C | 15% | 1016.8 hPa | 0 mm | 1.34 m/s, 78° | - | - |
| 1777763312 | 23.89° C | 15% | 1016.8 hPa | 0 mm | 1.34 m/s, 17° | - | - |
| 1777762715 | 23.89° C | 15% | 1016.8 hPa | 0 mm | 0 m/s | - | - |
| 1777762414 | 23.33° C | 15% | 1016.8 hPa | 0 mm | 0 m/s | - | - |
| 1777761813 | 23.33° C | 15% | 1016.8 hPa | 0 mm | 0 m/s | - | - |
| 1777761512 | 23.33° C | 15% | 1016.8 hPa | 0 mm | 0 m/s | - | - |
| 1777760614 | 23.33° C | 15% | 1016.8 hPa | 0 mm | 1.34 m/s, 243° | - | - |
| 1777760018 | 23.33° C | 13% | 1016.8 hPa | 0 mm | 1.34 m/s, 291° | - | - |
| 1777759712 | 22.78° C | 16% | 1016.8 hPa | 0 mm | 2.24 m/s, 19° | - | - |
| 1777759115 | 22.78° C | 16% | 1016.8 hPa | 0 mm | 3.13 m/s, 18° | - | - |
| 1777758814 | 23.33° C | 15% | 1016.8 hPa | 0 mm | 1.79 m/s, 343° | - | - |
| 1777758218 | 23.89° C | 15% | 1016.8 hPa | 0 mm | 0 m/s | - | - |
| 1777757916 | 23.89° C | 15% | 1016.8 hPa | 0 mm | 3.13 m/s, 356° | - | - |
| 1777757619 | 23.33° C | 15% | 1016.8 hPa | 0 mm | 1.34 m/s, 327° | - | - |
| 1777757320 | 23.89° C | 15% | 1016.8 hPa | 0 mm | 1.79 m/s, 345° | - | - |
| 1777757019 | 23.33° C | 15% | 1016.8 hPa | 0 mm | 0 m/s | - | - |
| 1777756721 | 22.78° C | 16% | 1017.8 hPa | 0 mm | 2.24 m/s, 31° | - | - |
| 1777756422 | 23.33° C | 16% | 1017.8 hPa | 0 mm | 1.34 m/s, 322° | - | - |
| 1777755526 | 23.33° C | 15% | 1017.8 hPa | 0 mm | 2.24 m/s, 296° | - | - |
| 1777755223 | 23.33° C | 15% | 1017.8 hPa | 0 mm | 1.79 m/s, 289° | - | - |
| 1777754926 | 23.33° C | 16% | 1017.8 hPa | 0 mm | 1.79 m/s, 301° | - | - |
| 1777754326 | 23.33° C | 16% | 1017.8 hPa | 0 mm | 0 m/s | - | - |
| 1777754023 | 22.78° C | 16% | 1017.8 hPa | 0 mm | 3.58 m/s, 29° | - | - |
* Rain latest hour (hover to see other rain measurements)
** Current wind speed in m/s (hover to see current wind gust speed)